Regional Weather Roundup
Issued by NWS

Home | Current Version | Previous Version | Graphics & Text | Print | Product List | Glossary On
Versions: 1 2 3 4 5 6 7 8 9 10 11 12 13 14 15 16 17 18 19 20 21 22 23 24 25 26 27 28 29 30 31 32 33 34 35 36 37 38 39 40 41 42 43 44 45 46 47 48 49 50
000
ASUS43 KDMX 270807
RWRIA

WEATHER ROUNDUP FOR IOWA
NATIONAL WEATHER SERVICE DES MOINES IA
300 AM CDT MON JUL 27 2015

NOTE: "FAIR" INDICATES FEW OR NO CLOUDS BELOW 12,000 FEET WITH NO
SIGNIFICANT WEATHER AND/OR OBSTRUCTIONS TO VISIBILITY.

* - THESE STATIONS ARE NOT NWS STATIONS...THUS NOT UNDER NWS
QUALITY CONTROL.  THEY ALSO DO NOT REPORT WEATHER SUCH
AS PRECIPITATION OR FOG.

IAZ001>003-012>014-020>022-031>034-043>046-270900-
   NORTHWEST IOWA

CITY           SKY/WX    TMP DP  RH WIND       PRES   REMARKS
CARROLL *      CLOUDY    73  73 100 CALM      29.91F
CHEROKEE *     CLOUDY    73  73 100 CALM      29.90F
DENISON *      MOCLDY    75  73  94 E5        29.88F
LE MARS *      MOCLDY    75  73  94 SE7G14    29.89F
ORANGE CITY *  CLEAR     73  72  94 E3        29.90F
SHELDON *      CLOUDY    72  72 100 E6        29.90F
SIOUX CITY     CLOUDY    77  73  87 SE8       29.86F
SPENCER        CLOUDY    73  70  90 E6        29.93F
STORM LAKE *   CLEAR     72  72 100 SE6       29.93F
$$

IAZ055>058-069>071-079>083-090>094-270900-
   SOUTHWEST IOWA

CITY           SKY/WX    TMP DP  RH WIND       PRES   REMARKS
ATLANTIC *     CLOUDY    75  75 100 CALM      29.90F
AUDUBON *      PTCLDY    73  72  94 CALM      29.92F
CLARINDA *     CLEAR     75  75 100 CALM      29.91F
COUNCIL BLFS *   N/A     77  75  94 SE6       29.88F
CRESTON *      MOCLDY    75  73  94 SE6       29.92F
HARLAN  *      MOCLDY    75  75 100 CALM      29.93F
LAMONI         MOCLDY    77  73  87 SE3       29.93S
RED OAK *      CLEAR     77  77 100 CALM      29.89F
SHENANDOAH *   CLEAR     79  77  94 CALM      29.88F HX  83
$$

IAZ047>049-059>061-072>074-084-270900-
   CENTRAL IOWA

CITY           SKY/WX    TMP DP  RH WIND       PRES   REMARKS
AMES           CLOUDY    74  72  93 CALM      29.93S
ANKENY *       CLEAR     73  73 100 NE3       29.93S
CHARITON *     CLEAR     73  72  94 E3        29.93F
DES MOINES     MOCLDY    77  72  84 SE7       29.92F
GRINNELL*      MOCLDY    72  70  94 E6        29.94F
KNOXVILLE *    PTCLDY    75  72  88 SE6       29.92F
MARSHALLTOWN   CLOUDY    72  71  97 E5        29.95R
PELLA *        MOCLDY    73  73 100 SE3       29.94S
PERRY *          N/A     73  72  94 E5        29.92F
$$

IAZ004>006-015-016-023>025-035-036-270900-
   NORTH CENTRAL IOWA

CITY           SKY/WX    TMP DP  RH WIND       PRES   REMARKS
ALGONA *       MOCLDY    73  72  94 SE7       29.95S
CLARION *      PTCLDY    73  72  94 SE8       29.95S
ESTHERVILLE    CLOUDY    71  71 100 SE5       29.94F FOG
FORT DODGE *   CLOUDY    72  70  94 E5        29.95F
MASON CITY     MOCLDY    71  71 100 SE6       29.98R
FOREST CITY *  CLOUDY    72  72 100 SE5       29.97R
IOWA FALLS *     N/A     72  70  94 E3        29.97S FOG
$$

IAZ007>011-017>019-026>030-037>042-050>054-066-270900-
   NORTHEAST IOWA

CITY           SKY/WX    TMP DP  RH WIND       PRES   REMARKS
CEDAR RAPIDS   MOCLDY    70  70 100 CALM      29.96R FOG
CHARLES CITY * MOCLDY    70  70 100 E7        29.98S
CLINTON *      PTCLDY    66  63  88 NE7       29.98S
DUBUQUE        PTCLDY    68  64  87 CALM      29.99R
MONTICELLO *   MOCLDY    68  66  94 CALM      29.98R
OELWEIN *      CLEAR     70  68  94 SE5       29.99R
WATERLOO       CLOUDY    71  69  93 E5        29.96R
$$

IAZ064-065-067-068-078-270900-
   EAST CENTRAL IOWA

CITY           SKY/WX    TMP DP  RH WIND       PRES   REMARKS
DAVENPORT      PTCLDY    67  65  93 E6        29.96R
IOWA CITY      MOCLDY    72  70  93 E5        29.96R
MT. PLEASANT * CLEAR     73  70  88 E3        29.94R FOG
MUSCATINE *    PTCLDY    72  70  94 E6        29.94S
QUAD CITIES    CLEAR     69  65  86 E5        29.95S
$$

IAZ062-063-075>077-085>089-095>099-270900-
   SOUTHEAST IOWA

CITY           SKY/WX    TMP DP  RH WIND       PRES   REMARKS
BURLINGTON     CLEAR     73  72  96 E3        29.93R
FAIRFIELD *    CLEAR     72  70  94 E3        29.94S
FORT MADISON * CLEAR     70  70 100 CALM      29.94S
KEOKUK *       CLEAR     73  73 100 CALM      29.92R
OSKALOOSA *      N/A     72  70  94 CALM      29.95R
CENTERVILLE *  CLEAR     73  72  94 E5        29.95S
OTTUMWA        CLEAR     72  72 100 CALM      29.93R
WASHINGTON *   CLOUDY    72  72 100 NE5       29.95S FOG
$$

ABBREVIATIONS USED IN REMARKS
   TC - TEMPERATURES IN CELSIUS
  WCI - WIND CHILL INDEX
   HX - HEAT INDEX
  VSB - VISIBILITY
$$



USA.gov is the U.S. government's official web portal to all federal, state and local government web resources and services.